KLM3239 LIMC-EDDF

Flight info

Callsign KLM3239
Flight time 1h 0m
Altitude 34000
Route SRN6SXPEPAG2Q/35R PEPAG ABESI N851 UTAVO ROLSA LADOL T163 EMPAX EMPA5B
Aircraft B738/M-VGDW/C

Departure

Time 2026-05-05 20:27
Airport Milan Malpensa International Airport (LIMC)

Arrival

Time 2026-05-05 21:28
Airport Frankfurt Main Airport (EDDF)
Time Latitude Longitude Altitude Speed Heading
2026-05-05 19:52 45.62727 8.71917 775 ft 0 kts 78°
2026-05-05 20:12 45.62728 8.71919 775 ft 1 kts 78°
2026-05-05 20:13 45.62732 8.71950 775 ft 4 kts 78°
2026-05-05 20:13 45.62723 8.71998 775 ft 7 kts 133°
2026-05-05 20:13 45.62666 8.72028 775 ft 8 kts 169°
2026-05-05 20:13 45.62608 8.72044 775 ft 9 kts 169°
2026-05-05 20:14 45.62533 8.72063 775 ft 13 kts 170°
2026-05-05 20:14 45.62431 8.72090 775 ft 16 kts 170°
2026-05-05 20:14 45.62309 8.72124 775 ft 18 kts 169°
2026-05-05 20:14 45.62188 8.72158 775 ft 16 kts 169°
2026-05-05 20:15 45.62083 8.72187 775 ft 14 kts 169°
2026-05-05 20:15 45.61990 8.72213 775 ft 13 kts 169°
2026-05-05 20:15 45.61899 8.72239 775 ft 13 kts 168°
2026-05-05 20:15 45.61808 8.72265 775 ft 14 kts 169°
2026-05-05 20:16 45.61702 8.72295 775 ft 16 kts 169°
2026-05-05 20:16 45.61588 8.72326 775 ft 16 kts 169°
2026-05-05 20:16 45.61481 8.72355 775 ft 13 kts 169°
2026-05-05 20:16 45.61410 8.72356 775 ft 9 kts 217°
2026-05-05 20:17 45.61383 8.72256 775 ft 12 kts 258°
2026-05-05 20:17 45.61312 8.72203 775 ft 15 kts 170°
2026-05-05 20:17 45.61200 8.72233 775 ft 17 kts 169°
2026-05-05 20:17 45.61080 8.72268 775 ft 17 kts 169°
2026-05-05 20:18 45.60960 8.72299 775 ft 17 kts 170°
2026-05-05 20:18 45.60843 8.72331 775 ft 16 kts 169°
2026-05-05 20:18 45.60729 8.72363 775 ft 16 kts 166°
2026-05-05 20:18 45.60647 8.72454 775 ft 15 kts 110°
2026-05-05 20:19 45.60632 8.72599 775 ft 14 kts 96°
2026-05-05 20:19 45.60621 8.72744 775 ft 14 kts 96°
2026-05-05 20:19 45.60609 8.72898 775 ft 16 kts 97°
2026-05-05 20:19 45.60596 8.73068 775 ft 18 kts 96°
2026-05-05 20:20 45.60610 8.73241 775 ft 17 kts 54°
2026-05-05 20:20 45.60709 8.73319 775 ft 16 kts 21°
2026-05-05 20:20 45.60812 8.73377 775 ft 14 kts 21°
2026-05-05 20:20 45.60900 8.73408 775 ft 12 kts 356°
2026-05-05 20:21 45.60974 8.73389 775 ft 9 kts 349°
2026-05-05 20:21 45.61046 8.73368 775 ft 12 kts 348°
2026-05-05 20:21 45.61138 8.73342 775 ft 13 kts 349°
2026-05-05 20:21 45.61225 8.73318 775 ft 15 kts 349°
2026-05-05 20:22 45.61348 8.73285 775 ft 20 kts 349°
2026-05-05 20:22 45.61501 8.73244 775 ft 19 kts 349°
2026-05-05 20:22 45.61585 8.73222 775 ft 9 kts 359°
2026-05-05 20:22 45.61619 8.73283 775 ft 10 kts 79°
2026-05-05 20:23 45.61634 8.73402 775 ft 12 kts 87°
2026-05-05 20:23 45.61601 8.73512 775 ft 11 kts 118°
2026-05-05 20:23 45.61586 8.73590 775 ft 0 kts 94°
2026-05-05 20:25 45.61586 8.73606 775 ft 6 kts 91°
2026-05-05 20:26 45.61613 8.73714 775 ft 13 kts 37°
2026-05-05 20:26 45.61667 8.73725 775 ft 0 kts 351°
2026-05-05 20:26 45.61669 8.73724 775 ft 3 kts 350°
2026-05-05 20:26 45.61862 8.73675 775 ft 69 kts 350°
2026-05-05 20:27 45.62606 8.73463 777 ft 146 kts 349°
2026-05-05 20:27 45.63729 8.73144 1190 ft 179 kts 349°
2026-05-05 20:27 45.65028 8.72765 1811 ft 201 kts 349°
2026-05-05 20:27 45.66452 8.72362 2512 ft 218 kts 349°
2026-05-05 20:28 45.67958 8.71940 3178 ft 228 kts 349°
2026-05-05 20:28 45.69511 8.71507 3721 ft 228 kts 349°
2026-05-05 20:28 45.71099 8.71277 3934 ft 234 kts
2026-05-05 20:28 45.72642 8.71989 3964 ft 232 kts 31°
2026-05-05 20:29 45.73809 8.73541 3995 ft 233 kts 55°
2026-05-05 20:29 45.74424 8.75686 4000 ft 234 kts 80°
2026-05-05 20:29 45.74467 8.77262 4013 ft 235 kts 92°
2026-05-05 20:29 45.74374 8.79601 4010 ft 235 kts 93°
2026-05-05 20:30 45.74273 8.81942 4011 ft 235 kts 93°
2026-05-05 20:30 45.74173 8.84266 4011 ft 235 kts 93°
2026-05-05 20:30 45.74072 8.86608 4011 ft 235 kts 93°
2026-05-05 20:30 45.73972 8.88937 4011 ft 235 kts 93°
2026-05-05 20:31 45.73873 8.91245 4386 ft 240 kts 93°
2026-05-05 20:31 45.73767 8.93764 5040 ft 259 kts 93°
2026-05-05 20:31 45.73661 8.96332 5585 ft 263 kts 93°
2026-05-05 20:31 45.73555 8.98933 6081 ft 264 kts 93°
2026-05-05 20:32 45.73448 9.01568 6584 ft 265 kts 93°
2026-05-05 20:32 45.73342 9.04204 7084 ft 267 kts 92°
2026-05-05 20:32 45.73238 9.06833 7580 ft 269 kts 92°
2026-05-05 20:32 45.73134 9.09528 8018 ft 271 kts 92°
2026-05-05 20:33 45.73029 9.12223 8533 ft 272 kts 92°
2026-05-05 20:33 45.72926 9.14942 9037 ft 275 kts 92°
2026-05-05 20:33 45.72821 9.17685 9539 ft 277 kts 92°
2026-05-05 20:33 45.72715 9.20467 9964 ft 281 kts 92°
2026-05-05 20:34 45.72609 9.23284 9989 ft 283 kts 92°
2026-05-05 20:34 45.72505 9.26018 10514 ft 279 kts 92°
2026-05-05 20:34 45.72654 9.28814 10990 ft 283 kts 73°
2026-05-05 20:34 45.73491 9.31350 11516 ft 285 kts 53°
2026-05-05 20:35 45.74892 9.33334 11945 ft 289 kts 34°
2026-05-05 20:35 45.76702 9.34590 11968 ft 289 kts 14°
2026-05-05 20:35 45.78669 9.34876 11992 ft 286 kts 354°
2026-05-05 20:35 45.80586 9.34179 12004 ft 284 kts 336°
2026-05-05 20:36 45.82365 9.32924 11994 ft 284 kts 330°
2026-05-05 20:36 45.84067 9.31515 11996 ft 284 kts 329°
2026-05-05 20:36 45.85771 9.30075 11993 ft 284 kts 328°
2026-05-05 20:36 45.87464 9.28639 11993 ft 284 kts 328°
2026-05-05 20:37 45.89165 9.27194 11993 ft 284 kts 328°
2026-05-05 20:37 45.90857 9.25755 11993 ft 284 kts 328°
2026-05-05 20:37 45.92558 9.24307 11993 ft 284 kts 328°
2026-05-05 20:37 45.94238 9.22877 11993 ft 284 kts 328°
2026-05-05 20:38 45.95929 9.21436 12218 ft 284 kts 328°
2026-05-05 20:38 45.97644 9.19976 12811 ft 295 kts 328°
2026-05-05 20:38 45.99434 9.18449 13395 ft 305 kts 328°
2026-05-05 20:38 46.01280 9.16873 13975 ft 315 kts 328°
2026-05-05 20:39 46.03188 9.15242 14564 ft 323 kts 328°
2026-05-05 20:39 46.05143 9.13570 15140 ft 330 kts 327°
2026-05-05 20:39 46.07135 9.11865 15720 ft 337 kts 327°
2026-05-05 20:39 46.09154 9.10134 16283 ft 343 kts 327°
2026-05-05 20:40 46.11217 9.08364 16856 ft 346 kts 327°
2026-05-05 20:40 46.13268 9.06603 17400 ft 348 kts 327°
2026-05-05 20:40 46.15422 9.05027 17902 ft 352 kts 339°
2026-05-05 20:40 46.17814 9.04260 18434 ft 356 kts 348°
2026-05-05 20:41 46.20295 9.03787 18973 ft 359 kts 350°
2026-05-05 20:41 46.22757 9.03406 19488 ft 362 kts 351°
2026-05-05 20:41 46.25277 9.03049 20005 ft 364 kts 351°
2026-05-05 20:41 46.27795 9.02704 20516 ft 366 kts 351°
2026-05-05 20:42 46.30323 9.02362 21025 ft 368 kts 351°
2026-05-05 20:42 46.32864 9.02021 21524 ft 369 kts 351°
2026-05-05 20:42 46.35416 9.01678 22024 ft 370 kts 351°
2026-05-05 20:42 46.37993 9.01332 22526 ft 371 kts 351°
2026-05-05 20:43 46.40532 9.00990 23020 ft 371 kts 351°
2026-05-05 20:43 46.43116 9.00642 23522 ft 370 kts 351°
2026-05-05 20:43 46.45632 9.00304 24009 ft 370 kts 351°
2026-05-05 20:43 46.48201 8.99958 24508 ft 369 kts 350°
2026-05-05 20:44 46.50726 8.99619 24999 ft 367 kts 350°
2026-05-05 20:44 46.53270 8.99275 25494 ft 366 kts 350°
2026-05-05 20:44 46.55787 8.98937 25985 ft 364 kts 350°
2026-05-05 20:44 46.58296 8.98598 26477 ft 361 kts 350°
2026-05-05 20:45 46.63235 8.97930 27454 ft 356 kts 349°
2026-05-05 20:45 46.65680 8.97599 27941 ft 352 kts 349°
2026-05-05 20:45 46.68097 8.97272 28409 ft 349 kts 349°
2026-05-05 20:46 46.70492 8.96945 28786 ft 349 kts 349°
2026-05-05 20:46 46.72886 8.96620 29180 ft 347 kts 349°
2026-05-05 20:46 46.75273 8.96296 29548 ft 346 kts 349°
2026-05-05 20:46 46.77655 8.95971 29898 ft 345 kts 349°
2026-05-05 20:47 46.80029 8.95649 30252 ft 344 kts 349°
2026-05-05 20:47 46.82400 8.95325 30612 ft 342 kts 349°
2026-05-05 20:47 46.84755 8.95003 30959 ft 341 kts 349°
2026-05-05 20:47 46.87096 8.94684 31307 ft 339 kts 349°
2026-05-05 20:48 46.89432 8.94367 31662 ft 336 kts 348°
2026-05-05 20:48 46.91728 8.94059 32008 ft 334 kts 348°
2026-05-05 20:48 46.94035 8.93745 32365 ft 330 kts 347°
2026-05-05 20:48 46.96300 8.93435 32718 ft 327 kts 346°
2026-05-05 20:49 46.98546 8.93128 33064 ft 323 kts 346°
2026-05-05 20:49 47.00764 8.92824 33414 ft 319 kts 345°
2026-05-05 20:49 47.02928 8.92528 33753 ft 315 kts 345°
2026-05-05 20:49 47.05138 8.92220 33880 ft 318 kts 344°
2026-05-05 20:50 47.09591 8.91594 33915 ft 330 kts 345°
2026-05-05 20:50 47.14241 8.90949 33921 ft 343 kts 345°
2026-05-05 20:51 47.19062 8.90283 33922 ft 355 kts 345°
2026-05-05 20:51 47.24054 8.89594 33941 ft 367 kts 346°
2026-05-05 20:52 47.29198 8.89028 33944 ft 384 kts 352°
2026-05-05 20:52 47.34594 8.89331 33958 ft 395 kts 353°
2026-05-05 20:53 47.40134 8.89719 33960 ft 405 kts 354°
2026-05-05 20:53 47.45790 8.90127 33957 ft 414 kts 354°
2026-05-05 20:54 47.51616 8.90550 33955 ft 422 kts 354°
2026-05-05 20:54 47.57526 8.90980 33963 ft 430 kts 354°
2026-05-05 20:55 47.63508 8.91417 33950 ft 434 kts 354°
2026-05-05 20:55 47.69510 8.91856 33915 ft 433 kts 354°
2026-05-05 20:56 47.75507 8.92295 33909 ft 432 kts 354°
2026-05-05 20:56 47.81492 8.92734 33909 ft 432 kts 354°
2026-05-05 20:57 47.87468 8.93173 33908 ft 432 kts 354°
2026-05-05 20:57 47.93445 8.93613 33906 ft 432 kts 354°
2026-05-05 20:58 47.96449 8.93837 33433 ft 424 kts 354°
2026-05-05 20:58 47.99295 8.94051 32873 ft 412 kts 354°
2026-05-05 20:58 48.02123 8.94262 32326 ft 400 kts 354°
2026-05-05 20:58 48.04858 8.94463 32208 ft 394 kts 354°
2026-05-05 20:59 48.07618 8.94660 32096 ft 402 kts 354°
2026-05-05 20:59 48.10446 8.94866 31985 ft 410 kts 354°
2026-05-05 20:59 48.13301 8.95080 31868 ft 412 kts 354°
2026-05-05 20:59 48.16157 8.95298 31743 ft 412 kts 355°
2026-05-05 21:00 48.18991 8.95692 31622 ft 413 kts 357°
2026-05-05 21:00 48.21855 8.96119 31501 ft 414 kts 357°
2026-05-05 21:00 48.27534 8.96979 31479 ft 407 kts 357°
2026-05-05 21:01 48.30317 8.97398 31165 ft 411 kts 357°
2026-05-05 21:01 48.33150 8.97828 30796 ft 410 kts 357°
2026-05-05 21:01 48.36016 8.98263 30418 ft 411 kts 357°
2026-05-05 21:01 48.38830 8.98691 30053 ft 412 kts 357°
2026-05-05 21:02 48.41653 8.99120 29688 ft 413 kts 357°
2026-05-05 21:02 48.44542 8.99561 29316 ft 414 kts 357°
2026-05-05 21:02 48.47404 8.99997 28948 ft 416 kts 357°
2026-05-05 21:02 48.50228 9.00429 28577 ft 413 kts 357°
2026-05-05 21:03 48.53056 9.00864 28182 ft 406 kts 357°
2026-05-05 21:03 48.55850 9.01292 27797 ft 402 kts 357°
2026-05-05 21:03 48.58612 9.01713 27422 ft 400 kts 357°
2026-05-05 21:03 48.61357 9.02133 27048 ft 399 kts 357°
2026-05-05 21:04 48.64101 9.02676 26669 ft 401 kts
2026-05-05 21:04 48.66861 9.03325 26292 ft 399 kts
2026-05-05 21:04 48.69592 9.03973 25891 ft 397 kts
2026-05-05 21:04 48.72273 9.04614 25350 ft 388 kts
2026-05-05 21:05 48.74882 9.05239 24832 ft 377 kts
2026-05-05 21:05 48.77442 9.05849 24320 ft 371 kts
2026-05-05 21:05 48.79952 9.06447 23828 ft 369 kts
2026-05-05 21:05 48.82481 9.07050 23415 ft 368 kts
2026-05-05 21:06 48.85007 9.07653 22989 ft 368 kts
2026-05-05 21:06 48.87517 9.08255 22564 ft 367 kts
2026-05-05 21:06 48.90025 9.08358 22073 ft 352 kts 345°
2026-05-05 21:06 48.92383 9.07737 21860 ft 346 kts 346°
2026-05-05 21:07 48.94815 9.07621 21868 ft 353 kts 353°
2026-05-05 21:07 48.97268 9.07916 21845 ft 366 kts
2026-05-05 21:07 48.99797 9.08470 21794 ft 367 kts 358°
2026-05-05 21:07 49.02338 9.08953 21507 ft 368 kts 359°
2026-05-05 21:08 49.04858 9.09446 21257 ft 368 kts 359°
2026-05-05 21:08 49.07382 9.09947 21006 ft 368 kts 359°
2026-05-05 21:08 49.09934 9.10454 20717 ft 371 kts 359°
2026-05-05 21:08 49.12397 9.10946 20340 ft 372 kts 360°
2026-05-05 21:09 49.14984 9.11464 19863 ft 372 kts
2026-05-05 21:09 49.17503 9.11972 19350 ft 363 kts
2026-05-05 21:09 49.19974 9.12471 18833 ft 354 kts
2026-05-05 21:09 49.22381 9.12955 18296 ft 347 kts
2026-05-05 21:10 49.24748 9.13430 17741 ft 341 kts
2026-05-05 21:10 49.27070 9.13898 17187 ft 336 kts
2026-05-05 21:10 49.29343 9.14542 16633 ft 335 kts
2026-05-05 21:10 49.31575 9.15306 16102 ft 330 kts
2026-05-05 21:11 49.33805 9.16085 15555 ft 327 kts
2026-05-05 21:11 49.36015 9.16863 15014 ft 324 kts
2026-05-05 21:11 49.38178 9.17627 14494 ft 321 kts
2026-05-05 21:11 49.40332 9.18389 13983 ft 319 kts
2026-05-05 21:12 49.42485 9.19153 13480 ft 317 kts
2026-05-05 21:12 49.44622 9.19912 12980 ft 314 kts
2026-05-05 21:12 49.46721 9.20658 12485 ft 312 kts
2026-05-05 21:12 49.48820 9.21405 11991 ft 309 kts
2026-05-05 21:13 49.50878 9.22098 11827 ft 299 kts
2026-05-05 21:13 49.52926 9.21957 11826 ft 294 kts 342°
2026-05-05 21:13 49.54910 9.21072 11838 ft 300 kts 344°
2026-05-05 21:13 49.57020 9.20996 11834 ft 307 kts
2026-05-05 21:14 49.59049 9.21996 11834 ft 313 kts 24°
2026-05-05 21:14 49.60822 9.24003 11828 ft 318 kts 43°
2026-05-05 21:14 49.62312 9.26541 11325 ft 323 kts 45°
2026-05-05 21:14 49.63808 9.29045 10835 ft 318 kts 45°
2026-05-05 21:15 49.65364 9.31419 10311 ft 312 kts 33°
2026-05-05 21:15 49.67241 9.32915 9819 ft 301 kts 14°
2026-05-05 21:15 49.69259 9.33365 9325 ft 291 kts 355°
2026-05-05 21:15 49.71228 9.32996 8847 ft 284 kts 347°
2026-05-05 21:16 49.73167 9.32408 8332 ft 280 kts 339°
2026-05-05 21:16 49.74851 9.31011 7800 ft 273 kts 317°
2026-05-05 21:16 49.76191 9.29015 7317 ft 270 kts 314°
2026-05-05 21:16 49.77568 9.27049 6944 ft 266 kts 315°
2026-05-05 21:17 49.78960 9.25152 6708 ft 268 kts 316°
2026-05-05 21:17 49.80370 9.23269 6467 ft 270 kts 316°
2026-05-05 21:17 49.81780 9.21411 6190 ft 260 kts 317°
2026-05-05 21:17 49.83143 9.19632 5910 ft 253 kts 317°
2026-05-05 21:18 49.84464 9.17913 5631 ft 245 kts 317°
2026-05-05 21:18 49.85721 9.16282 5499 ft 232 kts 317°
2026-05-05 21:18 49.86970 9.14655 5331 ft 237 kts 317°
2026-05-05 21:18 49.88240 9.13002 5236 ft 240 kts 317°
2026-05-05 21:19 49.89525 9.11330 5126 ft 241 kts 317°
2026-05-05 21:19 49.90761 9.09723 4945 ft 221 kts 317°
2026-05-05 21:19 49.91882 9.08264 4781 ft 201 kts 317°
2026-05-05 21:19 49.92902 9.06935 4754 ft 180 kts 317°
2026-05-05 21:20 49.93855 9.05689 4819 ft 181 kts 316°
2026-05-05 21:20 49.94833 9.04409 4834 ft 186 kts 317°
2026-05-05 21:20 49.95829 9.03107 4833 ft 187 kts 317°
2026-05-05 21:20 49.96829 9.01850 4831 ft 187 kts 320°
2026-05-05 21:21 49.97882 9.00643 4832 ft 187 kts 321°
2026-05-05 21:21 49.98927 8.99449 4832 ft 187 kts 321°
2026-05-05 21:21 49.99976 8.98251 4832 ft 187 kts 321°
2026-05-05 21:21 50.01016 8.97056 4831 ft 186 kts 317°
2026-05-05 21:22 50.01875 8.95569 4837 ft 184 kts 305°
2026-05-05 21:22 50.02669 8.93980 4831 ft 184 kts 304°
2026-05-05 21:22 50.03440 8.92394 4832 ft 184 kts 304°
2026-05-05 21:22 50.04208 8.90796 4641 ft 190 kts 303°
2026-05-05 21:23 50.04987 8.89170 4284 ft 186 kts 304°
2026-05-05 21:23 50.05713 8.87542 3888 ft 182 kts 292°
2026-05-05 21:23 50.06018 8.85694 3522 ft 175 kts 276°
2026-05-05 21:23 50.06176 8.83804 3152 ft 174 kts 274°
2026-05-05 21:24 50.06295 8.81953 2788 ft 175 kts 273°
2026-05-05 21:24 50.06401 8.80072 2418 ft 175 kts 273°
2026-05-05 21:24 50.06502 8.78181 2068 ft 173 kts 273°
2026-05-05 21:24 50.06598 8.76329 1862 ft 170 kts 273°
2026-05-05 21:25 50.06692 8.74507 1854 ft 172 kts 273°
2026-05-05 21:25 50.06787 8.72645 1951 ft 172 kts 273°
2026-05-05 21:25 50.06836 8.70762 1968 ft 175 kts 262°
2026-05-05 21:25 50.06470 8.68981 1745 ft 166 kts 248°
2026-05-05 21:26 50.06072 8.67342 1533 ft 161 kts 248°
2026-05-05 21:26 50.05685 8.65727 1333 ft 160 kts 248°
2026-05-05 21:26 50.05297 8.64096 1127 ft 160 kts 249°
2026-05-05 21:26 50.04915 8.62485 904 ft 156 kts 249°
2026-05-05 21:27 50.04549 8.60943 699 ft 150 kts 249°
2026-05-05 21:27 50.04187 8.59425 508 ft 146 kts 249°
2026-05-05 21:27 50.03854 8.57986 364 ft 135 kts 253°
2026-05-05 21:27 50.03577 8.56860 341 ft 92 kts 249°
2026-05-05 21:28 50.03461 8.56370 340 ft 34 kts 250°
2026-05-05 21:28 50.03431 8.56086 337 ft 20 kts 279°
2026-05-05 21:28 50.03449 8.55934 336 ft 11 kts 280°
2026-05-05 21:28 50.03460 8.55831 336 ft 9 kts 280°
2026-05-05 21:29 50.03487 8.55715 336 ft 14 kts 321°
2026-05-05 21:29 50.03562 8.55764 338 ft 15 kts 62°
2026-05-05 21:29 50.03610 8.55972 339 ft 22 kts 70°
2026-05-05 21:29 50.03661 8.56189 340 ft 21 kts 70°
2026-05-05 21:30 50.03712 8.56394 343 ft 18 kts 66°
2026-05-05 21:30 50.03754 8.56566 345 ft 16 kts 70°
2026-05-05 21:30 50.03796 8.56744 345 ft 18 kts 70°
2026-05-05 21:30 50.03843 8.56941 349 ft 19 kts 70°
2026-05-05 21:31 50.03892 8.57143 351 ft 20 kts 69°
2026-05-05 21:31 50.03943 8.57356 354 ft 21 kts 70°
2026-05-05 21:31 50.03994 8.57569 357 ft 19 kts 70°
2026-05-05 21:31 50.04044 8.57782 362 ft 22 kts 71°
2026-05-05 21:32 50.04098 8.58018 365 ft 23 kts 69°
2026-05-05 21:32 50.04161 8.58268 366 ft 25 kts 70°
2026-05-05 21:32 50.04219 8.58507 364 ft 22 kts 70°
2026-05-05 21:32 50.04268 8.58716 363 ft 18 kts 70°
2026-05-05 21:33 50.04313 8.58901 361 ft 16 kts 70°
2026-05-05 21:33 50.04350 8.59057 362 ft 15 kts 71°
2026-05-05 21:33 50.04391 8.59229 363 ft 18 kts 71°
2026-05-05 21:33 50.04429 8.59389 364 ft 14 kts 69°
2026-05-05 21:34 50.04487 8.59470 365 ft 10 kts
2026-05-05 21:34 50.04567 8.59468 364 ft 13 kts 358°
2026-05-05 21:34 50.04673 8.59453 362 ft 14 kts 347°
2026-05-05 21:34 50.04751 8.59412 361 ft 9 kts 339°
2026-05-05 21:35 50.04800 8.59412 361 ft 5 kts 44°
2026-05-05 21:35 50.04818 8.59462 362 ft 6 kts 69°
2026-05-05 21:35 50.04833 8.59525 364 ft 3 kts 70°
2026-05-05 21:35 50.04839 8.59550 365 ft 2 kts 70°
2026-05-05 21:36 50.04846 8.59565 366 ft 3 kts 30°
2026-05-05 21:36 50.04862 8.59566 366 ft 0 kts 352°
2026-05-05 21:36 50.04872 8.59563 367 ft 0 kts 345°